Regional Weather Roundup
Issued by NWS Northern Indiana

Home | Current Version | Previous Version | Graphics & Text | Print | Product List | Glossary On
Versions: 1 2 3 4 5 6 7 8 9 10 11 12 13 14 15 16 17 18 19 20 21 22 23 24 25 26 27 28 29 30 31 32 33 34 35 36 37 38 39 40 41 42 43 44 45 46 47 48 49 50
000
ASUS43 KIWX 271510
RWRIWX

KIWX WEATHER ROUNDUP
NATIONAL WEATHER SERVICE NORTHERN INDIANA
1100 AM EDT SUN MAY 27 2018

NOTE: "FAIR" INDICATES FEW OR NO CLOUDS BELOW 12,000 FEET WITH NO
SIGNIFICANT WEATHER AND/OR OBSTRUCTIONS TO VISIBILITY.

* THESE STATIONS ARE NOT UNDER NWS QUALITY CONTROL. THEY ALSO MAY NOT
  REPORT WEATHER SUCH AS PRECIPITATION OR FOG.

INZ001>027-271600-
NORTHERN INDIANA

CITY           SKY/WX    TMP DP  RH WIND       PRES   REMARKS
GARY*          SUNNY     88  66  48 CALM      29.88F
LAPORTE*       FAIR      85  69  58 CALM      29.91S
KNOX*          FAIR      86  68  54 SW5       29.90S
SOUTH BEND     FAIR      83  69  62 W5        29.90F
ELKHART*       FAIR      86  68  54 W5        29.90S
GOSHEN         FAIR      86  66  51 SW8       29.90S
ROCHESTER*     FAIR      88  68  51 W3        29.91F
WARSAW*        FAIR      84  64  51 W3        29.91S
AUBURN*        FAIR      82  68  61 W3        29.92S
FORT WAYNE     FAIR      85  68  56 CALM      29.92S
MARION*        FAIR      82  66  57 CALM      29.92F

$$
INZ028>050-271600-
CENTRAL INDIANA

CITY           SKY/WX    TMP DP  RH WIND       PRES   REMARKS
LAFAYETTE      FAIR      83  71  67 CALM      29.90S
KOKOMO*        FAIR      85  66  53 CALM      29.93S
MUNCIE*        FAIR      85  67  54 CALM      29.92F
INDIANAPOLIS   FAIR      84  69  60 N5        29.92S

$$
MIZ043>046-050>051-056>058-064>065-071>073-077>080-271600-
SOUTHWEST LOWER MICHIGAN

CITY           SKY/WX    TMP DP  RH WIND       PRES   REMARKS
BATTLE CREEK   FAIR      84  65  52 SW7       29.91S
BENTON HARBOR  FAIR      82  68  62 W7        29.89S
COLDWATER*     FAIR      85  57  38 W5        29.91S
HILLSDALE*     FAIR      81  61  50 NW5       29.92S
HOLLAND        FAIR      83  65  54 SW3       29.88S
GRAND RAPIDS   FAIR      81  66  60 S5        29.88F
KALAMAZOO      FAIR      85  66  53 SW6       29.90S
STURGIS*       FAIR      84  66  54 W5        29.90F
THREE RIVERS*  FAIR      85  65  51 SW5       29.90S

$$
OHZ001>008-015>018-024>025-271600-
NORTHWEST OHIO

CITY           SKY/WX    TMP DP  RH WIND       PRES   REMARKS
DEFIANCE       FAIR      82  66  58 CALM      29.91S
FINDLAY        FAIR      82  69  64 W6        29.91S
TOLEDO EXPRESS FAIR      83  68  60 VRB6      29.91R
TOLEDO METCALF FAIR      82  70  66 CALM      29.91S
LIMA           FAIR      81  68  64 W6        29.92F

$$
AND FOR LAKE MICHIGAN COASTAL AND OPEN LAKE BUOY OBSERVATIONS

STATION/POSITION TEMP    WIND        PRES    VSBY  WAVE
                 AIR SEA DIR/SP/G                  HT/PER
                 (F)     (DEG/KT/KT) (MB)    (MI)  (FT/S)
CALUMET HARBOR    84     190/  3/  5 1011.3S
MICHIGAN CITY     79     220/  6/  6   N/A
BURNS HARBOR      78        CALM     1012.5S
SAINT JOSEPH      73     200/  7/  8 1012.5
SOUTH LAKE BUOY   51 41  180/  8/  8 1011.9R         0
4 MI NW BRIDGMAN  70 66  180/  4/  4 1012.0          0
MICHIGAN CITY     74 65  210/  2/  2   N/A           0

$$
&&




USA.gov is the U.S. government's official web portal to all federal, state and local government web resources and services.